Weather History for Walla Walla, WA

Change the Weather History Date:

Thursday, November 1, 2012

  Actual Average Record
Temperature  
Mean Temperature 56 °F -  
Max Temperature 63 °F 55 °F 74 °F (1981)
Min Temperature 48 °F 39 °F 17 °F (2002)
Degree Days  
Heating Degree Days 10    
Growing Degree Days 6 (Base 50)    
Moisture  
Dew Point 46 °F    
Average Humidity 76    
Maximum Humidity 90    
Minimum Humidity 45    
Precipitation  
Precipitation 0.19 in - - ()
Sea Level Pressure  
Sea Level Pressure 29.91 in    
Wind  
Wind Speed 7 mph (SSE)    
Max Wind Speed 16 mph    
Max Gust Speed -    
Visibility 10 miles    
Events Rain    
Averages and records for this station are not official NWS values.
T = Trace of Precipitation, MM = Missing Value Source: NWS Daily Summary

Daily Weather History Graph

Daily Weather History Graph

Search for Another Location

Airport:

Trip Planner

Search our weather history database for the weather conditions in past years. The results will help you decide how hot, cold, wet, or windy it might be!

Date:

Astronomy

Nov. 01, 2012 Rise Set
Actual Time 7:34 AM PDT 5:38 PM PDT
Civil Twilight 7:03 AM PDT 6:09 PM PDT
Nautical Twilight 6:27 AM PDT 6:44 PM PDT
Astronomical Twilight 5:53 AM PDT 7:19 PM PDT
Moon 7:31 PM PDT (11/1) 10:18 AM PDT (11/1)
Length of Visible Light 11h 05m
Length of Day
10h 03m
Waning Gibbous, 92% of the Moon is Illuminated
Nov 1
Waning Gibbous
Nov 6
Last Quarter
Nov 13
New
Nov 20
First Quarter
Nov 28
Full

Hourly Weather History & Observations

Time (PDT) Temp. Dew Point Humidity Pressure Visibility Wind Dir Wind Speed Gust Speed Precip Events Conditions
12:53 AM 50.0 °F 46.0 °F 86% 29.79 in 10.0 mi East 9.2 mph - N/A   Clear
1:53 AM 48.9 °F 46.0 °F 90% 29.81 in 10.0 mi ESE 5.8 mph - N/A   Mostly Cloudy
2:53 AM 48.9 °F 45.0 °F 86% 29.81 in 10.0 mi ESE 8.1 mph - N/A   Clear
3:53 AM 50.0 °F 44.1 °F 80% 29.81 in 10.0 mi ESE 6.9 mph - N/A   Clear
4:53 AM 51.1 °F 45.0 °F 80% 29.82 in 10.0 mi ESE 4.6 mph - N/A   Overcast
5:53 AM 52.0 °F 45.0 °F 77% 29.83 in 10.0 mi ESE 4.6 mph - N/A   Overcast
6:53 AM 55.0 °F 44.1 °F 67% 29.84 in 10.0 mi South 3.5 mph - N/A   Overcast
7:53 AM 50.0 °F 44.1 °F 80% 29.85 in 10.0 mi SE 4.6 mph - 0.00 in   Mostly Cloudy
8:53 AM 55.0 °F 45.0 °F 69% 29.85 in 10.0 mi South 4.6 mph - N/A   Partly Cloudy
9:53 AM 54.0 °F 46.0 °F 75% 29.87 in 10.0 mi Calm Calm - N/A   Clear
10:53 AM 59.0 °F 41.0 °F 51% 29.87 in 10.0 mi South 6.9 mph - N/A   Scattered Clouds
11:53 AM 63.0 °F 41.0 °F 45% 29.87 in 10.0 mi South 16.1 mph - N/A   Mostly Cloudy
12:53 PM 57.0 °F 46.0 °F 67% 29.91 in 10.0 mi WSW 16.1 mph - 0.00 in Rain Light Rain
1:53 PM 53.1 °F 48.0 °F 83% 29.93 in 4.0 mi SE 4.6 mph - 0.07 in Rain Rain
2:53 PM 53.1 °F 48.0 °F 83% 29.92 in 9.0 mi ESE 6.9 mph - 0.04 in Rain Light Rain
3:53 PM 55.0 °F 46.9 °F 74% 29.94 in 10.0 mi Calm Calm - 0.03 in Rain Light Rain
4:53 PM 54.0 °F 48.9 °F 83% 29.95 in 10.0 mi SE 5.8 mph - 0.05 in Rain Light Rain
5:53 PM 55.0 °F 46.9 °F 74% 29.96 in 10.0 mi SSW 9.2 mph - 0.00 in   Overcast
6:53 PM 54.0 °F 46.9 °F 77% 29.98 in 10.0 mi South 8.1 mph - 0.00 in   Overcast
7:53 PM 54.0 °F 46.9 °F 77% 30.00 in 10.0 mi South 6.9 mph - N/A   Overcast
8:53 PM 54.0 °F 46.9 °F 77% 30.01 in 10.0 mi South 8.1 mph - N/A   Overcast
9:53 PM 54.0 °F 48.0 °F 80% 30.04 in 10.0 mi South 11.5 mph - N/A   Overcast
10:53 PM 54.0 °F 46.9 °F 77% 30.05 in 10.0 mi South 9.2 mph - N/A   Overcast
11:53 PM 53.1 °F 48.0 °F 83% 30.06 in 10.0 mi South 8.1 mph - N/A   Overcast